This is the latest recevied weather packets stored in our database for station/object ZL2IH. If no packets are shown the sender has not sent any weather packets the latest 10 day(s).
| Time | Temp. | Humidity | Pressure | Rain* | Wind** | Luminosity | Snow |
|---|---|---|---|---|---|---|---|
| 1777633238 | 7.22° C | 100% | 1036 hPa | 0 mm | - | - | - |
| 1777630217 | 7.22° C | 100% | 1036.3 hPa | 0 mm | - | - | - |
| 1777628417 | 7.22° C | 100% | 1036.1 hPa | 0 mm | - | - | - |
| 1777627857 | 7.78° C | 100% | 1036.1 hPa | 0 mm | - | - | - |
| 1777627217 | 7.78° C | 100% | 1036 hPa | 0 mm | - | - | - |
| 1777622457 | 8.89° C | 100% | 1035.8 hPa | 0 mm | - | - | - |
| 1777618217 | 9.44° C | 100% | 1035.7 hPa | 0 mm | - | - | - |
| 1777614617 | 11.11° C | 100% | 1035 hPa | 0 mm | - | - | - |
| 1777614016 | 11.11° C | 100% | 1035 hPa | 0 mm | - | - | - |
| 1777611017 | 13.33° C | 100% | 1035.3 hPa | 0 mm | - | - | - |
| 1777610419 | 13.33° C | 100% | 1035.3 hPa | 0 mm | - | - | - |
| 1777607419 | 14.44° C | 100% | 1035.5 hPa | 0 mm | - | - | - |
| 1777603819 | 15° C | 100% | 1035.7 hPa | 0 mm | - | - | - |
| 1777596619 | 13.89° C | 100% | 1036.7 hPa | 0 mm | - | - | - |
| 1777594238 | 13.33° C | 100% | 1037.3 hPa | 0 mm | - | - | - |
| 1777593018 | 12.78° C | 100% | 1037.5 hPa | 0 mm | - | - | - |
| 1777591818 | 12.78° C | 100% | 1037.8 hPa | 0 mm | - | - | - |
| 1777588219 | 11.11° C | 100% | 1037.7 hPa | 0 mm | - | - | - |
| 1777587618 | 11.11° C | 100% | 1038 hPa | 0 mm | - | - | - |
| 1777585818 | 9.44° C | 100% | 1038 hPa | 0 mm | - | - | - |
| 1777582219 | 7.78° C | 100% | 1037.5 hPa | 0 mm | - | - | - |
| 1777581018 | 7.22° C | 100% | 1037.3 hPa | 0 mm | - | - | - |
| 1777580418 | 6.67° C | 100% | 1037 hPa | 0 mm | - | - | - |
| 1777576218 | 5.56° C | 100% | 1036.2 hPa | 0 mm | - | - | - |
| 1777573817 | 5.56° C | 100% | 1036.1 hPa | 0 mm | - | - | - |
* Rain latest hour (hover to see other rain measurements)
** Current wind speed in m/s (hover to see current wind gust speed)